,,Stat6,,Stat2,,Stat8,,Stat9,,Stat10,,Wind1,,Wind1,
time,status,PA1M_AVG,status,PR1M_SUM,status,RH1M_AVG,status,SR1M_AVG,status,TA1M_AVG,status,W1dAve1m,status,W1sAve1m,
2007-09-06, 07:00:03,VALID,915.378,VALID,0,VALID,88.5685,VALID,23.9769,VALID,21.7446,VALID,100,VALID,2.83648,
2007-09-06, 07:01:00,VALID,915.4,VALID,0,VALID,88.697,VALID,13.1262,VALID,21.7256,VALID,91,VALID,2.0615,
2007-09-06, 07:02:01,VALID,915.392,VALID,0,VALID,88.8025,VALID,10.5111,VALID,21.7094,VALID,103,VALID,2.63227,
2007-09-06, 07:03:01,VALID,915.41,VALID,0,VALID,88.7809,VALID,15.8431,VALID,21.6997,VALID,112,VALID,1.96503,
2007-09-06, 07:04:01,VALID,915.415,VALID,0,VALID,88.3485,VALID,28.7655,VALID,21.7289,VALID,109,VALID,3.65625,
2007-09-06, 07:05:00,VALID,915.373,VALID,0,VALID,88.2722,VALID,10.9696,VALID,21.7616,VALID,91,VALID,4.35756,
2007-09-06, 07:06:00,VALID,915.416,VALID,0,VALID,87.9035,VALID,38.4786,VALID,21.7638,VALID,115,VALID,4.10973,
2007-09-06, 07:07:00,VALID,915.432,VALID,0,VALID,87.7763,VALID,44.4728,VALID,21.8138,VALID,91,VALID,2.52038,
2007-09-06, 07:08:01,VALID,915.457,VALID,0,VALID,87.6364,VALID,131.449,VALID,21.84,VALID,103,VALID,3.6237,
2007-09-06, 07:09:01,VALID,915.432,VALID,0,VALID,87.1545,VALID,108.524,VALID,21.9407,VALID,100,VALID,4.21431,
2007-09-06, 07:10:00,VALID,915.503,VALID,0,VALID,87.2308,VALID,124.198,VALID,21.9885,VALID,133,VALID,2.62227,
2007-09-06, 07:11:01,VALID,915.524,VALID,0,VALID,86.5518,VALID,139.515,VALID,22.0437,VALID,124,VALID,2.74183,
2007-09-06, 07:12:00,VALID,915.505,VALID,0,VALID,85.8422,VALID,178.672,VALID,22.1709,VALID,65,VALID,2.11864,
2007-09-06, 07:13:01,VALID,915.557,VALID,0,VALID,86.0953,VALID,183.087,VALID,22.2515,VALID,78,VALID,2.38938,
2007-09-06, 07:14:01,VALID,915.577,VALID,0,VALID,85.5205,VALID,188.81,VALID,22.3037,VALID,125,VALID,2.05618,
2007-09-06, 07:15:01,VALID,915.597,VALID,0,VALID,85.3145,VALID,193.395,VALID,22.3757,VALID,124,VALID,2.30796,
2007-09-06, 07:16:00,VALID,915.637,VALID,0,VALID,84.7397,VALID,192.172,VALID,22.4504,VALID,125,VALID,2.34059,
2007-09-06, 07:17:01,VALID,915.615,VALID,0,VALID,84.5846,VALID,194.906,VALID,22.5413,VALID,85,VALID,2.12135,
2007-09-06, 07:18:00,VALID,915.624,VALID,0,VALID,83.9946,VALID,199.44,VALID,22.5682,VALID,105,VALID,1.81613,
2007-09-06, 07:19:01,VALID,915.681,VALID,0,VALID,84.1243,VALID,193.242,VALID,22.665,VALID,122,VALID,1.24041,
2007-09-06, 07:20:01,VALID,915.696,VALID,0,VALID,83.8064,VALID,187.35,VALID,22.6556,VALID,105,VALID,2.8724,
2007-09-06, 07:21:01,VALID,915.708,VALID,0,VALID,83.1629,VALID,184.021,VALID,22.6098,VALID,104,VALID,4.15454,
2007-09-06, 07:22:01,VALID,915.764,VALID,0,VALID,82.7484,VALID,167.295,VALID,22.595,VALID,86,VALID,3.11681,
2007-09-06, 07:23:01,VALID,915.818,VALID,0,VALID,83.0243,VALID,222.772,VALID,22.6581,VALID,105,VALID,1.79648,
2007-09-06, 07:24:01,VALID,915.863,VALID,0,VALID,83.1935,VALID,221.668,VALID,22.729,VALID,101,VALID,2.10807,
2007-09-06, 07:25:01,VALID,915.894,VALID,0,VALID,83.0421,VALID,126.015,VALID,22.7609,VALID,114,VALID,3.26072,
2007-09-06, 07:26:01,VALID,915.919,VALID,0,VALID,83.1451,VALID,50.7727,VALID,22.6443,VALID,115,VALID,3.56722,
2007-09-06, 07:27:01,VALID,915.923,VALID,0,VALID,83.9488,VALID,75.4119,VALID,22.5076,VALID,90,VALID,2.66892,
2007-09-06, 07:28:01,VALID,915.943,VALID,0,VALID,84.4841,VALID,234.098,VALID,22.44,VALID,102,VALID,1.68379,
2007-09-06, 07:29:01,VALID,915.981,VALID,0,VALID,84.9673,VALID,219.29,VALID,22.4559,VALID,64,VALID,2.61775,
2007-09-06, 07:30:01,VALID,915.966,VALID,0,VALID,84.5884,VALID,251.877,VALID,22.4619,VALID,106,VALID,1.86585,
2007-09-06, 07:31:01,VALID,915.952,VALID,0,VALID,84.1535,VALID,256.954,VALID,22.5761,VALID,101,VALID,2.68026,
2007-09-06, 07:32:00,VALID,915.958,VALID,0,VALID,83.9081,VALID,259.603,VALID,22.6186,VALID,83,VALID,2.8746,
2007-09-06, 07:33:00,VALID,915.966,VALID,0,VALID,83.3015,VALID,262.626,VALID,22.6286,VALID,85,VALID,4.25236,
2007-09-06, 07:34:00,VALID,916,VALID,0,VALID,82.6276,VALID,247.428,VALID,22.6708,VALID,87,VALID,3.25816,
2007-09-06, 07:35:00,VALID,916.012,VALID,0,VALID,83.2189,VALID,273.408,VALID,22.729,VALID,66,VALID,2.36992,
2007-09-06, 07:36:00,VALID,916.022,VALID,0,VALID,82.742,VALID,276.397,VALID,22.8329,VALID,83,VALID,3.1412,
2007-09-06, 07:37:00,VALID,916.065,VALID,0,VALID,82.8781,VALID,281.593,VALID,22.8793,VALID,122,VALID,1.98547,
2007-09-06, 07:38:00,VALID,916.126,VALID,0,VALID,82.7153,VALID,286.11,VALID,22.9085,VALID,89,VALID,2.82485,
2007-09-06, 07:39:00,VALID,916.133,VALID,0,VALID,82.4572,VALID,290.729,VALID,22.9248,VALID,68,VALID,3.20723,
2007-09-06, 07:40:00,VALID,916.135,VALID,0,VALID,82.0198,VALID,294.94,VALID,22.941,VALID,100,VALID,2.84583,
2007-09-06, 07:41:00,VALID,916.182,VALID,0,VALID,82.5449,VALID,301.342,VALID,22.993,VALID,131,VALID,2.15589,
2007-09-06, 07:42:00,VALID,916.204,VALID,0,VALID,83.0027,VALID,304.84,VALID,23.0996,VALID,133,VALID,1.24201,
2007-09-06, 07:43:00,VALID,916.196,VALID,0,VALID,81.6535,VALID,309.679,VALID,23.1326,VALID,96,VALID,3.52439,
2007-09-06, 07:44:00,VALID,916.202,VALID,0,VALID,81.9257,VALID,314.57,VALID,23.1453,VALID,101,VALID,2.32999,
2007-09-06, 07:45:00,VALID,916.244,VALID,0,VALID,82.124,VALID,320.683,VALID,23.2006,VALID,148,VALID,2.08281,
2007-09-06, 07:46:00,VALID,916.257,VALID,0,VALID,82.5297,VALID,329.241,VALID,23.2688,VALID,166,VALID,1.46973,
2007-09-06, 07:47:00,VALID,916.271,VALID,0,VALID,81.9994,VALID,330.345,VALID,23.3963,VALID,144,VALID,1.32347,
2007-09-06, 07:48:00,VALID,916.296,VALID,0,VALID,82.4699,VALID,338.547,VALID,23.5322,VALID,98,VALID,0.852121,
2007-09-06, 07:49:00,VALID,916.309,VALID,0,VALID,81.6281,VALID,333.13,VALID,23.6728,VALID,81,VALID,0.48383,
2007-09-06, 07:50:00,VALID,916.315,VALID,0,VALID,80.3412,VALID,331.975,VALID,23.9226,VALID,130,VALID,1.04119,
2007-09-06, 07:51:00,VALID,916.283,VALID,0,VALID,79.1663,VALID,332.977,VALID,23.9923,VALID,149,VALID,1.10584,
2007-09-06, 07:52:00,VALID,916.31,VALID,0,VALID,79.2871,VALID,336.815,VALID,24.1034,VALID,110,VALID,1.38001,
2007-09-06, 07:53:00,VALID,916.375,VALID,0,VALID,79.4816,VALID,350.569,VALID,23.9501,VALID,120,VALID,2.30269,
2007-09-06, 07:54:00,VALID,916.435,VALID,0,VALID,80.8206,VALID,360.894,VALID,23.7752,VALID,77,VALID,2.35263,
2007-09-06, 07:55:00,VALID,916.458,VALID,0,VALID,79.8619,VALID,364.51,VALID,23.6843,VALID,46,VALID,1.77089,
2007-09-06, 07:56:00,VALID,916.483,VALID,0,VALID,79.8886,VALID,362.745,VALID,23.8331,VALID,99,VALID,1.45384,
2007-09-06, 07:57:00,VALID,916.494,VALID,0,VALID,79.6393,VALID,365.597,VALID,23.9081,VALID,105,VALID,2.13151,
2007-09-06, 07:58:00,VALID,916.504,VALID,0,VALID,79.5109,VALID,370.725,VALID,23.8071,VALID,119,VALID,2.57508,
2007-09-06, 07:59:00,VALID,916.517,VALID,0,VALID,80.5714,VALID,376.176,VALID,23.6976,VALID,111,VALID,2.14955,
2007-09-06, 08:00:00,VALID,916.494,VALID,0,VALID,80.2967,VALID,380.116,VALID,23.7132,VALID,129,VALID,1.65134,
2007-09-06, 08:01:00,VALID,916.502,VALID,0,VALID,80.7621,VALID,380.337,VALID,23.7593,VALID,112,VALID,1.78735,
2007-09-06, 08:02:00,VALID,916.503,VALID,0,VALID,80.2383,VALID,387.825,VALID,23.8892,VALID,168,VALID,1.26067,
2007-09-06, 08:03:00,VALID,916.527,VALID,0,VALID,80.696,VALID,391.069,VALID,23.8892,VALID,138,VALID,1.78437,
2007-09-06, 08:04:00,VALID,916.543,VALID,0,VALID,80.7202,VALID,393.463,VALID,23.9575,VALID,143,VALID,1.56841,
2007-09-06, 08:05:00,VALID,916.551,VALID,0,VALID,80.106,VALID,395.687,VALID,24.0033,VALID,124,VALID,1.19786,
2007-09-06, 08:06:00,VALID,916.554,VALID,0,VALID,79.7347,VALID,403.532,VALID,24.0127,VALID,68,VALID,1.81701,
2007-09-06, 08:07:00,VALID,916.59,VALID,0,VALID,79.0137,VALID,411.921,VALID,24.0809,VALID,127,VALID,1.13262,
2007-09-06, 08:08:00,VALID,916.573,VALID,0,VALID,78.4478,VALID,412.702,VALID,24.2564,VALID,158,VALID,0.635174,
2007-09-06, 08:09:00,VALID,916.577,VALID,0,VALID,78.0918,VALID,419.477,VALID,24.4744,VALID,56,VALID,0.661701,
2007-09-06, 08:10:00,VALID,916.602,VALID,0,VALID,77.4623,VALID,419.545,VALID,24.6431,VALID,40,VALID,1.51017,
2007-09-06, 08:11:00,VALID,916.611,VALID,0,VALID,75.986,VALID,424.758,VALID,24.6918,VALID,47,VALID,2.79878,
2007-09-06, 08:12:00,VALID,916.632,VALID,0,VALID,76.309,VALID,425.608,VALID,24.6073,VALID,85,VALID,2.35472,
2007-09-06, 08:13:00,VALID,916.647,VALID,0,VALID,75.6032,VALID,429.089,VALID,24.3967,VALID,111,VALID,2.68845,
2007-09-06, 08:14:00,VALID,916.682,VALID,0,VALID,76.7019,VALID,431.126,VALID,24.2886,VALID,106,VALID,1.3726,
2007-09-06, 08:15:00,VALID,916.672,VALID,0,VALID,77.4166,VALID,430.923,VALID,24.2508,VALID,81,VALID,2.60434,
2007-09-06, 08:16:00,VALID,916.706,VALID,0,VALID,78.0536,VALID,446.222,VALID,24.1719,VALID,95,VALID,1.29874,
2007-09-06, 08:17:00,VALID,916.734,VALID,0,VALID,79.0378,VALID,470.726,VALID,24.3314,VALID,118,VALID,1.20194,
2007-09-06, 08:18:00,VALID,916.754,VALID,0,VALID,78.5521,VALID,505.265,VALID,24.4331,VALID,113,VALID,2.13899,
2007-09-06, 08:19:00,VALID,916.724,VALID,0,VALID,77.3924,VALID,537.46,VALID,24.3506,VALID,68,VALID,2.68236,
2007-09-06, 08:20:00,VALID,916.751,VALID,0,VALID,77.5208,VALID,551.045,VALID,24.3412,VALID,103,VALID,2.22359,
2007-09-06, 08:21:00,VALID,916.756,VALID,0,VALID,78.2927,VALID,568.637,VALID,24.3571,VALID,71,VALID,2.60863,
2007-09-06, 08:22:00,VALID,916.792,VALID,0,VALID,78.6411,VALID,576.873,VALID,24.41,VALID,87,VALID,2.22675,
2007-09-06, 08:23:00,VALID,916.826,VALID,0,VALID,77.634,VALID,579.827,VALID,24.3935,VALID,107,VALID,3.36506,
2007-09-06, 08:24:00,VALID,916.823,VALID,0,VALID,77.002,VALID,583.461,VALID,24.3515,VALID,135,VALID,2.41442,
2007-09-06, 08:25:00,VALID,916.845,VALID,0,VALID,78.3359,VALID,584.395,VALID,24.3973,VALID,141,VALID,2.97452,
2007-09-06, 08:26:00,VALID,916.855,VALID,0,VALID,78.706,VALID,570.862,VALID,24.319,VALID,95,VALID,4.24691,
2007-09-06, 08:27:00,VALID,916.876,VALID,0,VALID,77.2754,VALID,558.618,VALID,24.1894,VALID,126,VALID,3.92012,
2007-09-06, 08:28:00,VALID,916.87,VALID,0,VALID,77.9926,VALID,546.511,VALID,24.099,VALID,127,VALID,2.65573,
2007-09-06, 08:29:00,VALID,916.898,VALID,0,VALID,79.4664,VALID,479.08,VALID,24.0984,VALID,78,VALID,2.59022,
2007-09-06, 08:30:00,VALID,916.891,VALID,0,VALID,78.4199,VALID,379.352,VALID,24.1604,VALID,55,VALID,3.07794,
2007-09-06, 08:31:00,VALID,916.912,VALID,0,VALID,78.7327,VALID,555.137,VALID,24.0887,VALID,59,VALID,3.40988,
2007-09-06, 08:32:00,VALID,916.954,VALID,0,VALID,79.3202,VALID,578.554,VALID,24.2508,VALID,70,VALID,1.93441,
2007-09-06, 08:33:00,VALID,916.979,VALID,0,VALID,78.0867,VALID,601.563,VALID,24.3359,VALID,95,VALID,2.29167,
2007-09-06, 08:34:00,VALID,917.035,VALID,0,VALID,79.1981,VALID,574.58,VALID,24.4461,VALID,77,VALID,1.8354,
2007-09-06, 08:35:00,VALID,917.043,VALID,0,VALID,77.6811,VALID,527.645,VALID,24.5628,VALID,147,VALID,3.19661,
2007-09-06, 08:36:00,VALID,917.03,VALID,0,VALID,77.6938,VALID,223.468,VALID,24.4753,VALID,135,VALID,3.20422,
2007-09-06, 08:37:00,VALID,917.053,VALID,0,VALID,78.5813,VALID,194.142,VALID,24.2647,VALID,116,VALID,3.45538,
2007-09-06, 08:38:00,VALID,917.063,VALID,0,VALID,78.8319,VALID,266.31,VALID,23.9752,VALID,106,VALID,2.90696,
2007-09-06, 08:39:00,VALID,917.104,VALID,0,VALID,79.9903,VALID,383.257,VALID,23.8645,VALID,86,VALID,2.46131,
2007-09-06, 08:40:00,VALID,917.118,VALID,0,VALID,79.9331,VALID,207.489,VALID,23.8157,VALID,116,VALID,3.31303,
2007-09-06, 08:41:00,VALID,917.114,VALID,0,VALID,80.059,VALID,527.747,VALID,23.7153,VALID,116,VALID,3.73601,
2007-09-06, 08:42:00,VALID,917.117,VALID,0,VALID,80.4697,VALID,578.724,VALID,23.754,VALID,111,VALID,2.69983,
2007-09-06, 08:43:00,VALID,917.148,VALID,0,VALID,80.6439,VALID,546.936,VALID,23.858,VALID,110,VALID,3.07459,
2007-09-06, 08:44:00,VALID,917.123,VALID,0,VALID,80.7113,VALID,538.53,VALID,24.0136,VALID,61,VALID,3.21913,
2007-09-06, 08:45:00,VALID,917.121,VALID,0,VALID,78.6932,VALID,547.054,VALID,24.1215,VALID,70,VALID,3.73145,
2007-09-06, 08:46:00,VALID,917.163,VALID,0,VALID,78.9705,VALID,353.728,VALID,24.1991,VALID,131,VALID,2.85156,
2007-09-06, 08:47:00,VALID,917.193,VALID,0,VALID,78.5915,VALID,216.828,VALID,24.2384,VALID,97,VALID,1.96763,
2007-09-06, 08:48:00,VALID,917.215,VALID,0,VALID,79.5643,VALID,183.597,VALID,24.2254,VALID,79,VALID,1.76017,
2007-09-06, 08:49:00,VALID,917.225,VALID,0,VALID,79.755,VALID,201.223,VALID,24.1802,VALID,72,VALID,2.13494,
2007-09-06, 08:50:00,VALID,917.226,VALID,0,VALID,79.3074,VALID,223.841,VALID,24.0559,VALID,94,VALID,1.86612,
2007-09-06, 08:51:00,VALID,917.257,VALID,0,VALID,79.3062,VALID,228.137,VALID,24.0068,VALID,115,VALID,2.27511,
2007-09-06, 08:52:00,VALID,917.274,VALID,0,VALID,79.1726,VALID,203.04,VALID,23.9208,VALID,121,VALID,2.93823,
2007-09-06, 08:53:00,VALID,917.287,VALID,0,VALID,79.0201,VALID,173.12,VALID,23.798,VALID,131,VALID,2.61662,
2007-09-06, 08:54:00,VALID,917.29,VALID,0,VALID,80.8206,VALID,145.475,VALID,23.7197,VALID,81,VALID,2.58798,
2007-09-06, 08:55:00,VALID,917.286,VALID,0,VALID,81.6624,VALID,134.964,VALID,23.6736,VALID,48,VALID,1.36452,
2007-09-06, 08:56:00,VALID,917.29,VALID,0,VALID,81.9676,VALID,133.164,VALID,23.7259,VALID,45,VALID,1.90316,
2007-09-06, 08:57:00,VALID,917.317,VALID,0,VALID,81.1004,VALID,145.679,VALID,23.7259,VALID,112,VALID,1.97303,
2007-09-06, 08:58:00,VALID,917.309,VALID,0,VALID,80.5765,VALID,167.957,VALID,23.6639,VALID,141,VALID,2.649,
2007-09-06, 08:59:00,VALID,917.317,VALID,0,VALID,81.033,VALID,185.227,VALID,23.6087,VALID,91,VALID,2.08379,
2007-09-06, 09:00:00,VALID,917.292,VALID,0,VALID,80.593,VALID,189.099,VALID,23.5431,VALID,96,VALID,2.96403,
2007-09-06, 09:01:00,VALID,917.313,VALID,0,VALID,80.9758,VALID,199.576,VALID,23.5074,VALID,106,VALID,2.13263,
2007-09-06, 09:02:00,VALID,917.316,VALID,0,VALID,81.108,VALID,204.534,VALID,23.5336,VALID,95,VALID,2.77883,
2007-09-06, 09:03:00,VALID,917.315,VALID,0,VALID,81.061,VALID,208.372,VALID,23.482,VALID,93,VALID,3.59059,
2007-09-06, 09:04:00,VALID,917.299,VALID,0,VALID,81.5862,VALID,232.519,VALID,23.4433,VALID,74,VALID,2.76116,
2007-09-06, 09:05:00,VALID,917.245,VALID,0,VALID,81.5391,VALID,369.893,VALID,23.4566,VALID,53,VALID,4.26265,
2007-09-06, 09:06:00,VALID,917.247,VALID,0,VALID,81.1958,VALID,228.817,VALID,23.482,VALID,37,VALID,4.3404,
2007-09-06, 09:07:00,VALID,917.275,VALID,0,VALID,81.403,VALID,275.344,VALID,23.578,VALID,47,VALID,3.05602,
2007-09-06, 09:08:00,VALID,917.299,VALID,0,VALID,81.0648,VALID,275.344,VALID,23.637,VALID,95,VALID,2.27379,
2007-09-06, 09:09:00,VALID,917.282,VALID,0,VALID,81.5594,VALID,312.074,VALID,23.6793,VALID,61,VALID,2.34775,
2007-09-06, 09:10:00,VALID,917.258,VALID,0,VALID,81.5493,VALID,282.103,VALID,23.7605,VALID,64,VALID,3.03955,
2007-09-06, 09:11:00,VALID,917.222,VALID,0,VALID,80.6528,VALID,428.375,VALID,23.7856,VALID,82,VALID,3.06734,
2007-09-06, 09:12:00,VALID,917.223,VALID,0,VALID,81.7502,VALID,319.392,VALID,23.8145,VALID,68,VALID,2.97031,
2007-09-06, 09:13:00,VALID,917.203,VALID,0,VALID,80.9681,VALID,261.878,VALID,23.8736,VALID,59,VALID,3.47716,
2007-09-06, 09:14:00,VALID,917.162,VALID,0,VALID,80.7583,VALID,236.407,VALID,23.8928,VALID,73,VALID,4.10472,
2007-09-06, 09:15:00,VALID,917.208,VALID,0,VALID,80.373,VALID,244.864,VALID,23.7628,VALID,68,VALID,4.49355,
2007-09-06, 09:16:00,VALID,917.197,VALID,0,VALID,80.9033,VALID,238.53,VALID,23.7106,VALID,69,VALID,3.70722,
2007-09-06, 09:17:00,VALID,917.205,VALID,0,VALID,80.8194,VALID,229.207,VALID,23.692,VALID,79,VALID,3.5904,
2007-09-06, 09:18:00,VALID,917.205,VALID,0,VALID,81.2263,VALID,207.37,VALID,23.6459,VALID,68,VALID,3.60174,
2007-09-06, 09:19:00,VALID,917.247,VALID,0,VALID,81.3267,VALID,204.636,VALID,23.5904,VALID,53,VALID,3.24964,
2007-09-06, 09:20:00,VALID,917.279,VALID,0,VALID,82.1088,VALID,215.096,VALID,23.6131,VALID,84,VALID,2.79444,
2007-09-06, 09:21:00,VALID,917.29,VALID,0,VALID,82.3466,VALID,218.272,VALID,23.604,VALID,69,VALID,3.02009,
2007-09-06, 09:22:00,VALID,917.318,VALID,0,VALID,82.756,VALID,206.028,VALID,23.5747,VALID,84,VALID,2.31324,
2007-09-06, 09:23:00,VALID,917.343,VALID,0,VALID,83.5877,VALID,203.906,VALID,23.6228,VALID,93,VALID,1.59914,
2007-09-06, 09:24:00,VALID,917.336,VALID,0,VALID,82.3898,VALID,213.058,VALID,23.6426,VALID,72,VALID,2.60799,
2007-09-06, 09:25:00,VALID,917.342,VALID,0,VALID,82.7954,VALID,235.915,VALID,23.5969,VALID,95,VALID,2.41871,
2007-09-06, 09:26:00,VALID,917.35,VALID,0,VALID,83.3829,VALID,301.885,VALID,23.6258,VALID,81,VALID,2.15923,
2007-09-06, 09:27:00,VALID,917.382,VALID,0,VALID,82.7764,VALID,529.7,VALID,23.6911,VALID,110,VALID,2.41406,
2007-09-06, 09:28:00,VALID,917.36,VALID,0,VALID,82.2194,VALID,380.235,VALID,23.7758,VALID,87,VALID,2.41578,
2007-09-06, 09:29:00,VALID,917.35,VALID,0,VALID,82.2118,VALID,283.869,VALID,23.8402,VALID,62,VALID,3.10538,
2007-09-06, 09:30:00,VALID,917.408,VALID,0,VALID,81.8862,VALID,267.38,VALID,23.8792,VALID,112,VALID,2.4234,
2007-09-06, 09:31:00,VALID,917.387,VALID,0,VALID,81.2593,VALID,262.948,VALID,23.8467,VALID,87,VALID,2.4388,
2007-09-06, 09:32:00,VALID,917.397,VALID,0,VALID,81.7108,VALID,284.038,VALID,23.7983,VALID,103,VALID,2.23801,
2007-09-06, 09:33:00,VALID,917.402,VALID,0,VALID,81.5798,VALID,456.479,VALID,23.7755,VALID,111,VALID,2.6513,
2007-09-06, 09:34:00,VALID,917.398,VALID,0,VALID,82.8781,VALID,369.197,VALID,23.7723,VALID,123,VALID,1.88535,
2007-09-06, 09:35:00,VALID,917.373,VALID,0,VALID,83.1286,VALID,498.404,VALID,23.8954,VALID,73,VALID,1.75,
2007-09-06, 09:36:00,VALID,917.353,VALID,0,VALID,82.9938,VALID,620.768,VALID,24.0809,VALID,55,VALID,3.02468,
2007-09-06, 09:37:00,VALID,917.335,VALID,0,VALID,81.3115,VALID,435.83,VALID,24.2629,VALID,37,VALID,3.28404,
2007-09-06, 09:38:00,VALID,917.342,VALID,0,VALID,79.9089,VALID,291.51,VALID,24.2859,VALID,69,VALID,3.77793,
2007-09-06, 09:39:00,VALID,917.355,VALID,0,VALID,80.7405,VALID,284.565,VALID,24.117,VALID,89,VALID,3.02493,
2007-09-06, 09:40:00,VALID,917.315,VALID,0,VALID,81.6332,VALID,282.918,VALID,23.9773,VALID,63,VALID,4.0277,
2007-09-06, 09:41:00,VALID,917.347,VALID,0,VALID,81.7082,VALID,278.774,VALID,23.873,VALID,63,VALID,4.30608,
2007-09-06, 09:42:00,VALID,917.365,VALID,0,VALID,81.1983,VALID,272.118,VALID,23.7365,VALID,78,VALID,4.4269,
2007-09-06, 09:43:00,VALID,917.377,VALID,0,VALID,81.6281,VALID,274.597,VALID,23.6494,VALID,68,VALID,3.82639,
2007-09-06, 09:44:00,VALID,917.412,VALID,0,VALID,82.18,VALID,420.445,VALID,23.6521,VALID,70,VALID,3.13072,
2007-09-06, 09:45:00,VALID,917.38,VALID,0,VALID,81.7222,VALID,496.842,VALID,23.6719,VALID,83,VALID,3.83067,
2007-09-06, 09:46:00,VALID,917.39,VALID,0,VALID,81.7387,VALID,326.032,VALID,23.743,VALID,69,VALID,3.50248,
2007-09-06, 09:47:00,VALID,917.424,VALID,0,VALID,81.0979,VALID,314.706,VALID,23.7693,VALID,53,VALID,4.14787,
2007-09-06, 09:48:00,VALID,917.43,VALID,0,VALID,81.754,VALID,333.639,VALID,23.795,VALID,71,VALID,3.22869,
2007-09-06, 09:49:00,VALID,917.432,VALID,0,VALID,80.7227,VALID,403.923,VALID,23.8219,VALID,66,VALID,3.72935,
2007-09-06, 09:50:00,VALID,917.401,VALID,0,VALID,81.1284,VALID,454.662,VALID,23.8181,VALID,66,VALID,4.62046,
2007-09-06, 09:51:00,VALID,917.414,VALID,0,VALID,81.8557,VALID,447.139,VALID,23.8636,VALID,56,VALID,2.69531,
2007-09-06, 09:52:00,VALID,917.412,VALID,0,VALID,81.974,VALID,409.9,VALID,23.9915,VALID,59,VALID,2.70313,
2007-09-06, 09:53:00,VALID,917.387,VALID,0,VALID,80.4786,VALID,376.057,VALID,24.0116,VALID,79,VALID,3.30208,
2007-09-06, 09:54:00,VALID,917.39,VALID,0,VALID,81.0254,VALID,342.724,VALID,23.9073,VALID,61,VALID,4.33114,
2007-09-06, 09:55:00,VALID,917.393,VALID,0,VALID,81.4323,VALID,326.066,VALID,23.8943,VALID,70,VALID,2.52676,
2007-09-06, 09:56:00,VALID,917.405,VALID,0,VALID,81.2988,VALID,327.272,VALID,23.8651,VALID,60,VALID,2.80781,
2007-09-06, 09:57:00,VALID,917.403,VALID,0,VALID,81.019,VALID,323.689,VALID,23.8358,VALID,89,VALID,3.05487,
2007-09-06, 09:58:00,VALID,917.386,VALID,0,VALID,80.6846,VALID,309.034,VALID,23.767,VALID,108,VALID,2.75347,
2007-09-06, 09:59:00,VALID,917.385,VALID,0,VALID,81.4336,VALID,305.383,VALID,23.7445,VALID,82,VALID,3.31323,
2007-09-06, 10:00:00,VALID,917.387,VALID,0,VALID,80.8664,VALID,316.285,VALID,23.6994,VALID,63,VALID,3.43895,
2007-09-06, 10:01:00,VALID,917.344,VALID,0,VALID,80.6655,VALID,324.113,VALID,23.7351,VALID,68,VALID,3.75182,
2007-09-06, 10:02:00,VALID,917.383,VALID,0,VALID,81.0648,VALID,318.425,VALID,23.7871,VALID,69,VALID,2.5423,
2007-09-06, 10:03:00,VALID,917.355,VALID,0,VALID,80.0984,VALID,322.058,VALID,23.8352,VALID,88,VALID,2.68483,
2007-09-06, 10:04:00,VALID,917.362,VALID,0,VALID,81.3445,VALID,770.522,VALID,23.9463,VALID,63,VALID,2.74981,
2007-09-06, 10:05:00,VALID,917.359,VALID,0,VALID,81.5556,VALID,1010.73,VALID,24.1731,VALID,77,VALID,2.07475,
2007-09-06, 10:06:00,VALID,917.321,VALID,0,VALID,81.2873,VALID,1014.1,VALID,24.5471,VALID,51,VALID,2.50089,
2007-09-06, 10:07:00,VALID,917.302,VALID,0,VALID,78.5496,VALID,782.12,VALID,24.9807,VALID,55,VALID,3.17359,
2007-09-06, 10:08:00,VALID,917.321,VALID,0,VALID,76.1132,VALID,453.235,VALID,25.1104,VALID,45,VALID,2.77656,
2007-09-06, 10:09:00,VALID,917.299,VALID,0,VALID,75.3705,VALID,629.938,VALID,25.1432,VALID,59,VALID,3.21856,
2007-09-06, 10:10:00,VALID,917.282,VALID,0,VALID,74.764,VALID,551.249,VALID,25.0392,VALID,71,VALID,2.74018,
2007-09-06, 10:11:00,VALID,917.216,VALID,0,VALID,74.7297,VALID,1030.21,VALID,24.8735,VALID,73,VALID,4.67169,
2007-09-06, 10:12:00,VALID,917.211,VALID,0,VALID,75.0005,VALID,1004.18,VALID,24.8738,VALID,103,VALID,3.89329,
2007-09-06, 10:13:00,VALID,917.169,VALID,0,VALID,75.9326,VALID,973.307,VALID,24.9583,VALID,88,VALID,4.05578,
2007-09-06, 10:14:00,VALID,917.19,VALID,0,VALID,76.2518,VALID,943.285,VALID,25.0818,VALID,60,VALID,4.60004,
2007-09-06, 10:15:00,VALID,917.17,VALID,0,VALID,74.544,VALID,918.408,VALID,25.1208,VALID,52,VALID,4.34601,
2007-09-06, 10:16:00,VALID,917.163,VALID,0,VALID,74.6356,VALID,925.15,VALID,25.1929,VALID,92,VALID,4.49043,
2007-09-06, 10:17:00,VALID,917.154,VALID,0,VALID,73.9222,VALID,939.125,VALID,25.2186,VALID,73,VALID,5.05487,
2007-09-06, 10:18:00,VALID,917.2,VALID,0,VALID,72.7727,VALID,645.798,VALID,25.0753,VALID,92,VALID,3.91493,
2007-09-06, 10:19:00,VALID,917.198,VALID,0,VALID,74.9484,VALID,860.283,VALID,25.0564,VALID,86,VALID,3.96688,
2007-09-06, 10:20:00,VALID,917.133,VALID,0,VALID,75.2917,VALID,757.345,VALID,25.0759,VALID,74,VALID,2.77896,
2007-09-06, 10:21:00,VALID,917.12,VALID,0,VALID,75.7342,VALID,948.294,VALID,25.3558,VALID,136,VALID,2.51054,
2007-09-06, 10:22:00,VALID,917.063,VALID,0,VALID,73.0257,VALID,949.211,VALID,25.5391,VALID,131,VALID,3.06994,
2007-09-06, 10:23:00,VALID,917.052,VALID,0,VALID,74.1295,VALID,944.678,VALID,25.6109,VALID,59,VALID,2.52461,
2007-09-06, 10:24:00,VALID,917.007,VALID,0,VALID,72.7599,VALID,937.97,VALID,25.8063,VALID,42,VALID,3.77287,
2007-09-06, 10:25:00,VALID,917.083,VALID,0,VALID,73.1808,VALID,939.193,VALID,26.018,VALID,116,VALID,2.70164,
2007-09-06, 10:26:00,VALID,917.063,VALID,0,VALID,72.0606,VALID,926.865,VALID,25.8974,VALID,115,VALID,4.35785,
2007-09-06, 10:27:00,VALID,917.047,VALID,0,VALID,73.4402,VALID,910.784,VALID,25.7634,VALID,117,VALID,2.75986,
2007-09-06, 10:28:00,VALID,917.034,VALID,0,VALID,73.8243,VALID,889.863,VALID,25.8518,VALID,113,VALID,2.93501,
2007-09-06, 10:29:00,VALID,917.015,VALID,0,VALID,72.5183,VALID,875.345,VALID,25.9429,VALID,114,VALID,2.0379,
2007-09-06, 10:30:00,VALID,917.011,VALID,0,VALID,72.2411,VALID,861.981,VALID,25.9826,VALID,73,VALID,2.75502,
2007-09-06, 10:31:00,VALID,916.98,VALID,0,VALID,71.454,VALID,859.196,VALID,25.8785,VALID,61,VALID,2.9186,
2007-09-06, 10:32:00,VALID,916.989,VALID,0,VALID,72.4166,VALID,849.908,VALID,26.0603,VALID,114,VALID,2.24473,
2007-09-06, 10:33:00,VALID,916.998,VALID,0,VALID,70.4126,VALID,843.404,VALID,26.2163,VALID,129,VALID,3.31098,
2007-09-06, 10:34:00,VALID,916.941,VALID,0,VALID,70.5194,VALID,844.898,VALID,25.9504,VALID,86,VALID,2.93324,
2007-09-06, 10:35:00,VALID,916.965,VALID,0,VALID,71.5239,VALID,855.409,VALID,25.9279,VALID,118,VALID,2.91424,
2007-09-06, 10:36:00,VALID,916.944,VALID,0,VALID,72.718,VALID,860.113,VALID,25.8688,VALID,89,VALID,3.04613,
2007-09-06, 10:37:00,VALID,916.91,VALID,0,VALID,73.6602,VALID,858.975,VALID,25.9302,VALID,64,VALID,2.52244,
2007-09-06, 10:38:00,VALID,916.902,VALID,0,VALID,71.5252,VALID,851.589,VALID,26.098,VALID,56,VALID,4.01133,